This demonstration page uses our WeatherBlox Daily Observations layout. Learn more.

Left ArrowRight Arrow

Hourly Observations for February 21, 2022

Temp ( °F °C ) Dew Point ( °F °C ) Humidity (%) Winds ( mph kmh ) Pressure ( in mb ) Visibility ( mi km ) Precip ( " mm )
12:15 am 00:15 Clear 39 4 21 -6.1 48 48 SSE 7 11 29.73 1007 10 16 0.00 0.00
12:35 am 00:35 Clear 37 2.7 20 -6.5 51 51 SSE 7 11 29.74 1007 10 16 0.00 0.00
12:55 am 00:55 Clear 38 3.4 21 -6.3 49 49 SSE 8 13 29.73 1007 10 16 0.00 0.00
1:15 am 01:15 Clear 35 1.8 20 -6.9 53 53 SE 8 13 29.74 1007 10 16 0.00 0.00
1:35 am 01:35 Clear 34 1 20 -6.8 56 56 SE 9 15 29.73 1007 10 16 0.00 0.00
1:55 am 01:55 Clear 35 1.5 20 -6.6 55 55 SE 10 17 29.71 1006 10 16 0.00 0.00
2:15 am 02:15 Clear 34 1 20 -6.9 56 56 SE 8 13 29.70 1006 10 16 0.00 0.00
2:35 am 02:35 Clear 32 0 19 -7.4 58 58 SE 7 11 29.70 1006 10 16 0.00 0.00
2:55 am 02:55 Clear 34 0.9 20 -6.9 56 56 SSE 8 13 29.70 1006 10 16 0.00 0.00
3:15 am 03:15 Clear 36 2.1 20 -6.7 53 53 SSE 8 13 29.67 1005 10 16 0.00 0.00
3:35 am 03:35 Clear 37 2.8 20 -6.8 50 50 S 5 7 29.66 1004 10 16 0.00 0.00
3:55 am 03:55 Clear 34 1.1 19 -7.1 55 55 SSW 5 7 29.67 1005 10 16 0.00 0.00
4:15 am 04:15 Clear 33 0.5 19 -7.2 57 57 Calm 29.67 1005 10 16 0.00 0.00
4:35 am 04:35 Clear 35 1.6 20 -6.9 54 54 S 5 7 29.65 1004 10 16 0.00 0.00
4:55 am 04:55 Clear 30 -1.3 18 -8 61 61 ESE 7 11 29.67 1005 10 16 0.00 0.00
5:15 am 05:15 Clear 30 -1.2 17 -8.1 60 60 E 3 6 29.66 1005 10 16 0.00 0.00
5:35 am 05:35 Clear 29 -1.5 18 -7.9 62 62 N 8 13 29.70 1006 10 16 0.00 0.00
5:55 am 05:55 Clear 30 -1.1 19 -7.2 64 64 NNE 10 17 29.69 1006 10 16 0.00 0.00
6:15 am 06:15 Clear 30 -1 20 -6.6 66 66 NNE 12 19 29.70 1006 10 16 0.00 0.00
6:35 am 06:35 Clear 29 -1.7 20 -6.6 70 70 NNE 13 20 29.71 1006 10 16 0.00 0.00
6:55 am 06:55 Clear 28 -2.3 21 -6.1 75 75 NNE 12 19 29.72 1006 10 16 0.00 0.00
7:15 am 07:15 Clear 28 -2.5 22 -5.3 81 81 NE 13 20 29.72 1006 10 16 0.00 0.00
7:35 am 07:35 Sunny 28 -2.5 24 -4.7 85 85 NNE 16 26 29.72 1006 10 16 0.00 0.00
7:55 am 07:55 Sunny 28 -2.2 24 -4.3 86 86 NNE 15 24 29.73 1007 10 16 0.00 0.00
8:15 am 08:15 Mostly Cloudy 29 -1.7 25 -4 85 85 NNE 20 31 29.73 1007 10 16 0.00 0.00
8:35 am 08:35 Cloudy 28 -2 24 -4.3 84 84 NNE 23 37 29.74 1007 10 16 0.00 0.00
8:55 am 08:55 Cloudy 28 -2.4 23 -4.8 84 84 N 22 35 29.77 1008 10 16 0.00 0.00
9:15 am 09:15 Cloudy 25 -3.8 21 -6.2 84 84 N 23 37 29.80 1009 10 16 0.00 0.00
9:35 am 09:35 Cloudy 25 -3.9 20 -6.5 82 82 N 22 35 29.81 1010 10 16 0.00 0.00
9:55 am 09:55 Cloudy 24 -4.5 19 -7.5 80 80 N 28 44 29.83 1010 10 16 0.00 0.00
10:15 am 10:15 Cloudy 23 -4.8 18 -7.9 79 79 N 22 35 29.85 1011 10 16 0.00 0.00
10:35 am 10:35 Cloudy 24 -4.7 18 -7.9 79 79 N 23 37 29.85 1011 10 16 0.00 0.00
10:55 am 10:55 Cloudy 22 -5.3 17 -8.5 78 78 N 24 39 29.87 1011 10 16 0.00 0.00
11:15 am 11:15 Cloudy 22 -5.6 16 -9 77 77 N 22 35 29.87 1011 10 16 0.00 0.00
11:35 am 11:35 Cloudy 23 -5.2 16 -9 75 75 N 26 43 29.88 1012 10 16 0.00 0.00
11:55 am 11:55 Cloudy 24 -4.7 15 -9.2 71 71 N 26 43 29.87 1011 10 16 0.00 0.00
12:15 pm 12:15 Cloudy 23 -4.9 14 -10.2 67 67 N 25 41 29.88 1012 10 16 0.00 0.00
12:35 pm 12:35 Cloudy 23 -5 11 -11.5 61 61 N 29 46 29.88 1012 10 16 0.00 0.00
12:55 pm 12:55 Cloudy 22 -5.5 11 -11.9 61 61 N 28 44 29.88 1012 10 16 0.00 0.00
1:15 pm 13:15 Partly Cloudy 24 -4.7 12 -11.2 61 61 N 24 39 29.88 1012 10 16 0.00 0.00
1:35 pm 13:35 Sunny 23 -4.8 12 -11.3 61 61 N 25 41 29.88 1012 10 16 0.00 0.00
1:55 pm 13:55 Sunny 24 -4.6 11 -11.4 59 59 N 23 37 29.87 1011 10 16 0.00 0.00
2:15 pm 14:15 Sunny 22 -5.5 10 -12 61 61 N 23 37 29.89 1012 10 16 0.00 0.00
2:35 pm 14:35 Sunny 22 -5.7 10 -12.3 60 60 N 22 35 29.91 1013 10 16 0.00 0.00
2:55 pm 14:55 Partly Cloudy 21 -6.3 9 -12.7 61 61 N 28 44 29.92 1013 10 16 0.00 0.00
3:15 pm 15:15 Mostly Cloudy 20 -6.6 9 -12.9 61 61 N 26 43 29.92 1013 10 16 0.00 0.00
3:35 pm 15:35 Cloudy 19 -7.5 8 -13.3 64 64 N 28 44 29.95 1014 10 16 0.00 0.00
3:55 pm 15:55 Cloudy 17 -8.1 7 -13.9 63 63 N 30 48 29.95 1014 10 16 0.00 0.00
4:15 pm 16:15 Cloudy 17 -8.5 7 -14.1 64 64 N 30 48 29.96 1014 10 16 0.00 0.00
4:35 pm 16:35 Cloudy 16 -9.1 6 -14.5 65 65 N 25 41 29.98 1015 10 16 0.00 0.00
4:55 pm 16:55 Cloudy 15 -9.4 6 -14.5 67 67 N 23 37 30.02 1016 10 16 0.00 0.00
5:15 pm 17:15 Cloudy 14 -9.8 5 -14.8 67 67 N 25 41 30.03 1017 10 16 0.00 0.00
5:35 pm 17:35 Cloudy 13 -10.3 5 -15 69 69 N 21 33 30.06 1018 10 16 0.00 0.00
5:55 pm 17:55 Cloudy 13 -10.7 5 -15.1 70 70 N 17 28 30.06 1018 10 16 0.00 0.00
6:15 pm 18:15 Cloudy 12 -11.2 4 -15.3 72 72 N 23 37 30.07 1018 10 16 0.00 0.00
6:35 pm 18:35 Cloudy 12 -11.2 5 -15 74 74 N 25 41 30.07 1018 10 16 0.00 0.00
6:55 pm 18:55 Cloudy 11 -11.6 5 -15.2 75 75 N 25 41 30.06 1018 7 11 0.00 0.00
7:15 pm 19:15 Cloudy 10 -12.2 3 -16.1 73 73 N 25 41 30.09 1019 10 16 0.00 0.00
7:35 pm 19:35 Cloudy 10 -12.5 2 -16.6 72 72 N 28 44 30.11 1020 10 16 0.00 0.00
7:55 pm 19:55 Cloudy 9 -13 1 -17.2 71 71 N 26 43 30.13 1020 10 16 0.00 0.00
8:15 pm 20:15 Cloudy 8 -13.5 0 -17.9 70 70 N 22 35 30.16 1021 10 16 0.00 0.00
8:35 pm 20:35 Cloudy 7 -13.7 0 -18 70 70 N 26 43 30.16 1021 7 11 0.00 0.00
8:55 pm 20:55 Cloudy with Haze 7 -14 0 -18 72 72 N 31 50 30.16 1021 5 8 0.00 0.00
9:15 pm 21:15 Cloudy 7 -14 0 -18 72 72 N 25 41 30.15 1021 7 11 0.00 0.00
9:35 pm 21:35 Cloudy 7 -14 -1 -18.1 71 71 N 30 48 30.16 1021 10 16 0.00 0.00
9:55 pm 21:55 Cloudy 7 -14 -1 -18.1 71 71 N 28 44 30.17 1022 10 16 0.00 0.00
10:15 pm 22:15 Windy with Snow Likely 7 -14 -1 -18.2 71 71 N 26 43 30.16 1021 7 11 0.00 0.00
10:35 pm 22:35 Cloudy with Haze 6 -14.6 -2 -18.7 71 71 N 24 39 30.16 1021 5 8 0.00 0.00
10:55 pm 22:55 Windy with Snow Likely 6 -14.7 -2 -18.8 71 71 N 25 41 30.19 1022 4 6 0.00 0.00
11:15 pm 23:15 Windy with Snow Likely 5 -15.1 -3 -19.3 71 71 NNW 24 39 30.21 1023 4 6 0.00 0.00
11:35 pm 23:35 Windy with Snow Likely 4 -15.5 -3 -19.3 73 73 NNW 25 41 30.22 1023 3 5 0.00 0.00
11:55 pm 23:55 Cloudy with Haze 4 -15.6 -3 -19.4 73 73 NNW 24 39 30.22 1023 3 5 0.00 0.00

Powered by AerisWeather